Regional Weather Roundup
Issued by NWS Grand Forks, ND

Home | Current Version | Previous Version | Graphics & Text | Print | Product List | Glossary On
Versions: 1 2 3 4 5 6 7 8 9 10 11 12 13 14 15 16 17 18 19 20 21 22 23 24 25 26 27 28 29 30 31 32 33 34 35 36 37 38 39 40 41 42 43 44 45 46 47 48 49 50
000
ASUS43 KFGF 281531
RWRFGF
PRAIRIE TO PINES  WEATHER ROUNDUP
NATIONAL WEATHER SERVICE EASTERN NORTH DAKOTA/GRAND FORKS ND
900 AM CST SUN DEC 28 2014

 **SATELLITE DATA USED TO AUGMENT SKY COVER AT AUTOMATED STATIONS**
 *****  WEATHER ACROSS EASTERN NORTH DAKOTA  *****

CITY           SKY/WX    TMP DP  RH WIND       PRES   REMARKS
GRAND FORKS    CLEAR     -9 -14  78 N8        30.30R WCI -25
GRAND FRKS AFB PTCLDY    -8 -13  77 N6        30.30R WCI -21
GRAND FRKS NWS   N/A     -8 N/A N/A N7          N/A  WCI -22
DEVILS LAKE    CLOUDY    -4  -9  77 NE7       30.22R WCI -18
FARGO          CLEAR     -1  -8  72 N16       30.26R WCI -21
WAHPETON ARPT  CLOUDY     5   0  78 N16G23    30.23R WCI -14
$$

 ***** WEATHER ACROSS CENTRAL AND WESTERN NORTH DAKOTA  *****

CITY           SKY/WX    TMP DP  RH WIND       PRES   REMARKS
BISMARCK       CLOUDY    10   7  87 E7        30.15R WCI  -1
MINOT          CLOUDY    -6 -11  79 NW7       30.19R WCI -20
JAMESTOWN      CLOUDY     4  -1  80 NE10      30.19R WCI -11
MINOT AFB      CLOUDY    -8 -11  84 N6        30.20R WCI -21
GARRISON         N/A      5   1  83 NE8       30.13R WCI  -8
WILLISTON      CLOUDY    12   6  77 NE9       30.10R WCI   0
DICKINSON      CLOUDY    18  14  84 E13       29.98R WCI   5
HETTINGER      CLOUDY    12   8  84 E7        29.98R WCI   1
$$

 *****  OTHER AIRPORT OBSERVATIONS IN OUR AREA  *****

CITY           SKY/WX    TMP DP  RH WIND       PRES   REMARKS
WALHALLA         N/A    -11 -15  84 NW7       30.32R WCI -26
GRAFTON AIRPOR NOT AVBL
VALLEY CITY AR CLOUDY     0   0 100 NE8       30.23R WCI -15
CANDO          CLOUDY    -2  -8  78 NE7       30.24R WCI -16
CAVALIER APRT  FAIR      -9 -15  77 NW7       30.32R WCI -24
GWINNER        PTSUNNY    5   1  85 N20       30.21R WCI -15
SHEYENNE NWR     N/A      1  -8  64 N14       29.95S WCI -17
ROLLA          CLOUDY   -15 -18  84 NE3       30.21R
 ***** THE ABOVE OBSERVATIONS ARE NON NWS ARE NOT QUALITY
       CONTROLLED AND MAY MIS-REPORT RAIN FOR SNOW...
$$

  *****  WEATHER ACROSS NORTHERN MINNESOTA  *****

CITY           SKY/WX    TMP DP  RH WIND       PRES   REMARKS
FLAG ISLAND    CLEAR    -13 -18  77 NW12      30.23R WCI -33
WARROAD        CLEAR    -11 -17  77 W3        30.24R
ROSEAU         PTCLDY    -9 -15  77 NW6       30.25R WCI -23
HALLOCK        CLEAR    -11 -17  77 N6        30.30R WCI -25
THF RVR FALLS  CLEAR     -8  -9  92 N7        30.25R WCI -22
BAUDETTE       CLEAR     -8 -13  78 NW8       30.21R WCI -24
WASKISH        PTCLDY    -2  -8  78 CALM      30.21R
CROOKSTON      CLEAR     -9 -15  77 N9        30.31R WCI -27
STEPHEN NDAWN    N/A    -13 -18  77 N5          N/A  WCI -25
GREENBUSH NDAW   N/A    -11 -17  77 NW5         N/A  WCI -23
$$
  *****  WEATHER ACROSS CENTRAL AND WEST MINNESOTA  *****

CITY           SKY/WX    TMP DP  RH WIND       PRES   REMARKS
FOSSTON        CLEAR     -6  -9  84 N7        30.23R WCI -20
BEMIDJI        CLOUDY    -3  -7  85 NW5       30.18R WCI -14
PARK RAPIDS    CLEAR      3  -3  76 N12       30.15R WCI -13
ELBOW LAKE     CLOUDY    14  11  87 N9        30.16R WCI   2
WADENA         PTCLDY     9   5  85 N10       30.15R WCI  -6
DETROIT LAKES  CLEAR      3   0  85 N5        30.19R WCI  -6
MOORHEAD       CLEAR      0  -6  78 N13       30.27R WCI -18
FERGUS FALLS   CLOUDY     9   1  72 N10       30.22R WCI  -6
MORRIS MN      MOCLDY    19  18  93 N10       30.14R WCI   8
STAPLES        PTCLDY    10   7  85 N10       30.14R WCI  -3
$$
  *****  WEATHER ELSEWHERE ACROSS MINNESOTA  *****

CITY           SKY/WX    TMP DP  RH WIND       PRES   REMARKS
DULUTH         CLEAR      9   0  67 NW9G18    30.08R WCI  -4
INTRNTL FALLS  CLEAR     -5 -10  79 NW5       30.18R WCI -16
ELY            CLOUDY     0  -6  78 W8        30.11R WCI -15
CLOQUET        PTCLDY     9   1  72 NW9G17    30.11R WCI  -5
WHEATON        CLOUDY     9   7  92 N13G20    30.22R WCI  -7
BRAINERD       PTCLDY    13   8  81 N7        30.13R WCI   3
HIBBING        MOCLDY    -1  -8  72 NW14      30.15R WCI -20
ALEXANDRIA     CLOUDY    18  13  80 N10       30.13R WCI   6
SAINT CLOUD    CLOUDY    19  13  77 CALM      30.11R
MINNEAPOLIS    MOCLDY    10   7  87 CALM      30.14R
$$

  *****  WEATHER ACROSS SOUTH DAKOTA  *****

CITY           SKY/WX    TMP DP  RH WIND       PRES   REMARKS
SIOUX FALLS    PTCLDY    -1  -1 100 CALM      30.11R
BROOKINGS      NOT AVBL
WATERTOWN      CLOUDY     9   6  88 NW5       30.09R WCI   1
HURON          PTCLDY    -1  -5  82 CALM      30.12R
SISSETON         N/A     11   8  88 N15       30.18R WCI  -5
ABERDEEN       CLOUDY    16  12  84 NE12      30.15R WCI   3
MITCHELL       CLEAR      2  -1  88 N3        30.13R
PIERRE         FOG        2   0  91 E5        30.06R VSB 1/4 WCI  -8
MOBRIDGE       CLOUDY    14  10  84 SE9       30.05R WCI   2
RAPID CITY     MOCLDY    10   3  73 NW3       29.94R
$$

  *****  SOME WEATHER IN NEARBY STATES *****

CITY           SKY/WX    TMP DP  RH WIND       PRES   REMARKS
GLASGOW MT     CLOUDY    18  14  84 E15       30.00R WCI   4
GREAT FALLS MT LGT SNOW  21  21 100 N15       29.91R VSB 1   WCI   8
CHEYENNE WY    CLOUDY    24   4  42 VRB7      29.87R WCI  16
SCOTTSBLUFF NE MOCLDY     5   1  83 E6        29.95S WCI  -6
OMAHA NE       CLEAR     19  15  84 S3        30.17R
DES MOINES IA  MOSUNNY   19  15  84 S5        30.16R WCI  12
DAVENPORT IA   SUNNY     19  14  81 W5        30.21R WCI  12
CHICAGO IL     PTSUNNY   23  17  78 W6        30.17R WCI  16
EAU CLAIRE WI  MOCLDY    10   6  84 W5        30.13R WCI   2
LA CROSSE WI   CLOUDY    17  11  77 SW7       30.16R WCI   8
$$

  *****  SOME NATIONAL WEATHER *****

CITY           SKY/WX    TMP DP  RH WIND       PRES   REMARKS
LA GUARDIA NY  LGT RAIN  45  41  86 SW8       29.92R
RALEIGH NC     PTSUNNY   57  50  77 SW13      30.08S
ATLANTA GA     LGT RAIN  57  55  94 S7        30.10S FOG
NEW ORLEANS LA FOG       66  64  93 NW6       30.11R VSB 1/4
OKLAHOMA CITY  MOSUNNY   21  18  88 CALM      30.25R
ALBUQUERQUE NM PTCLDY    17  10  74 SE3       30.21S
SALT LAKE CITY CLOUDY    27  17  66 SE8       30.08F WCI  19
LOS ANGELES CA CLOUDY    47  22  37 CALM      30.26R
BOISE ID       CLOUDY    28  26  92 CALM      30.08R
SEATTLE WA     MOCLDY    39  36  89 CALM      30.18R
$$

*** WEATHER ACROSS MANITOBA...SASKATCHEWAN AND ONTARIO ***
                ***ONTARIO***

CITY           SKY/WX    TMP DP  RH WIND       PRES   REMARKS
GERALDTON      FLURRIES  -2  -8  78 W6        29.97R WCI -14
THUNDER BAY    PTCLDY     7  -4  61 NW9G18    30.10  WCI  -7
SIOUX LOOKOUT  CLEAR    -13 -18  77 NW10      30.11R WCI -32
TORONTO        CLOUDY    34  25  69 W14G20    30.02R WCI  24
BIG TROUT LK   FLURRIES -20 -26  76 W10       29.99R WCI -41
PICKLE LAKE    PTCLDY   -18 -26  69 W10       30.01R WCI -39
DRYDEN         CLEAR    -17 -22  76 W10       30.13R WCI -37
KENORA         CLEAR    -18 -24  76 NW7       30.18R WCI -35
$$
                *** MANITOBA***

CITY           SKY/WX    TMP DP  RH WIND       PRES   REMARKS
BRANDON        PTCLDY   -13 -18  77 NW2       30.27
DAUPHIN        CLEAR    -29 -35  75 W6        30.31R WCI -46
ISLAND LAKE    PTCLDY   -26 -31  75 W9        30.15R WCI -47
PILOT MOUND      N/A    -15 -20  76 N3          N/A
THE PAS        PTCLDY   -24 -29  76 NW10      30.34R WCI -46
THOMPSON       PTCLDY   -26 -33  68 NW7       30.25R WCI -44
WINNIPEG       PTCLDY   -20 -26  76 W6        30.32  WCI -36
CHURCHILL      CRYSTALS -13 -18  77 N21G28    30.16R WCI -39
GILLAM         PTCLDY   -24 -29  76 NW12      30.15S WCI -47
$$
                ***SASKATCHEWAN***

CITY           SKY/WX    TMP DP  RH WIND       PRES   REMARKS
ESTEVAN        MOCLDY    -6  -9  84 E10       30.18R WCI -23
KINDERSLEY     MOCLDY     0  -8  71 NE20      30.20  WCI -22
LLOYDMINSTER   PTCLDY   -17 -20  83 NW2       30.28
PRINCE ALBERT  PTCLDY   -29 -35  75 W3        30.36
REGINA         PTCLDY   -18 -22  83 N6        30.22  WCI -33
YORKTON        CLEAR    -20 -26  76 NW5       30.25R WCI -33
N. BATTLEFORD  CLEAR    -18 -22  83 NW3       30.36R FOG
LA RONGE       CLEAR    -33 -38  75 CALM      30.41
SASKATOON      PTCLDY   -24 -29  76 N3        30.34R
SWIFT CURRENT  FLURRIES   3   1  92 E14       30.09R WCI -15
$$
NOTE: THESE ARE AUTOMATED STATIONS WITH LIMITED QUALITY CONTROL
      "FAIR" INDICATES FEW OR NO CLOUDS BELOW 12,000 FEET WITH NO
      SIGNIFICANT WEATHER AND/OR OBSTRUCTIONS TO VISIBILITY.
      SKY/WX - SKY CONDITION AND SIGNIFICANT WEATHER.
      TMP - AIR TEMPERATURE.    DP   - DEWPOINT TEMPERATURE.
      RH  - RELATIVE HUMIDITY.  PRES - PRESSURE.
      HX  - HEAT INDEX.         WCI  - WIND CHILL INDEX.
$



USA.gov is the U.S. government's official web portal to all federal, state and local government web resources and services.